Location: Buch
(49.7331°N, 12.1098°E)
Time: 00:23:44
(UTC+00:00)

Cosmos 1340 Rocket - Pass Details

Date: 12 May 2021
Orbit: 527 x 559 km, 81.2° (Epoch: 18 June)

Event Time Altitude Azimuth Distance (km) Brightness Sun altitude
Rises 20:42:14 0° 353° (N) 2,760 7.5 -14.7°
Reaches altitude 10° 20:44:32 10° 1° (N) 1,859 6.3 -14.9°
Maximum altitude 20:48:25 40° 72° (ENE) 831 3.6 -15.2°
Enters shadow 20:50:07 27° 123° (ESE) 1,104 3.8 -15.4°
